Retour au catalogue

CONNECTA IOT-15

ActifCommunicationsSSO
NORAD 67402·PAYLOAD·🇹🇷 Turkey

Lancé Jan 11, 2026 depuis Vandenberg Space Force Base

Loading…

Prochains Passages (prochaines 24 heures)

TLE

FraisSource: Space-Track

Époque: Sep 14, 2026, 10:56 UTC

1 67402U 26004AR  26257.45612226  .00005713  00000-0  28063-3 0  9999
2 67402  97.4627 255.0502 0004405  48.0754 312.0856 15.18441576 37272

Suivez CONNECTA IOT-15 en temps réel avec AllMySat

Download on the App Store